Regional Weather Roundup
Issued by NWS

Home | Current Version | Previous Version | Text Only | Print | Product List | Glossary On
Versions: 1 2 3 4 5 6 7 8 9 10 11 12 13 14 15 16 17 18 19 20 21 22 23 24 25 26 27 28 29 30 31 32 33 34 35 36 37 38 39 40 41 42 43 44 45 46 47 48 49 50
000
ASUS43 KDTX 272010
RWRMI
MICHIGAN HOURLY REGIONAL WEATHER ROUNDUP
NATIONAL WEATHER SERVICE DETROIT/PONTIAC MI
400 PM EDT FRI MAY 27 2016

NOTE: "FAIR" INDICATES FEW OR NO CLOUDS BELOW 12,000 FEET WITH NO
SIGNIFICANT WEATHER AND/OR OBSTRUCTION TO VISIBILITY.

MIZ047>049-052>055-059>063-066>070-074>076-081>083-272100-
SOUTHEAST LOWER MICHIGAN

CITY           SKY/WX    TMP DP  RH WIND       PRES   REMARKS
ADRIAN         CLOUDY    84  62  47 SW10G21   29.98F
ALMA           CLOUDY    80  64  57 S8G20     29.94R
ANN ARBOR      CLOUDY    80  64  58 SW9       29.97F
BAD AXE        PTSUNNY   81  64  55 SE5       29.96F
CARO           PTSUNNY   84  63  47 SE6       29.94F
DETROIT CITY   CLOUDY    83  61  47 S9        29.97F
DETROIT        CLOUDY    81  65  58 SE9       29.98F
FLINT          MOSUNNY   87  62  43 SW9       29.95F
GROSSE ILE     MOSUNNY   79  66  65 SE6       29.97F
HILLSDALE      CLOUDY    81  57  43 S8        29.99S
HOWELL         CLOUDY    83  61  47 S9        29.97F

CITY           SKY/WX    TMP DP  RH WIND       PRES   REMARKS
JACKSON        CLOUDY    81  61  50 S12       29.97F
LAMBERTVILLE   CLOUDY    85  65  50 SW5       29.98F
LANSING        PTSUNNY   81  63  54 S15G22    29.95S
LAPEER         FAIR      85  58  38 S5        29.96F
MASON          MOSUNNY   82  64  54 S14G21    29.96S
MONROE         CLOUDY    79  67  66 SE3       29.97S
MT. CLEMENS    PTSUNNY   81  65  58 S14       29.96F
PONTIAC        CLOUDY    83  61  47 SW7       29.96F
PORT HOPE        N/A     61  59  93 SE5       29.97F
PORT HURON     CLOUDY    81  64  57 S6        29.97F
TRI CITIES     MOSUNNY   87  61  41 SE10      29.93F
MIDLAND        FAIR      85  62  45 S7        29.92S
TROY           CLOUDY    85  62  46 S7        29.99F
SAGINAW HB     PTSUNNY   86  61  42 S7        29.93F
$$
MIZ043>046-050>051-056>058-064>065-071>073-077>080-272100-
SOUTHWEST LOWER MICHIGAN

CITY           SKY/WX    TMP DP  RH WIND       PRES   REMARKS
BATTLE CREEK   CLOUDY    80  64  58 S12G20    29.96F
BENTON HARBOR  CLOUDY    82  65  56 SE12      29.89F
BIG RAPIDS     RAIN      67  64  91 SW3       29.97R
COLDWATER      CLOUDY    82  61  49 SW8       29.96F
FREMONT        CLOUDY    73  69  87 SE6       29.92S
HOLLAND        MOSUNNY   81  67  62 S9        29.92F
GRAND RAPIDS   CLOUDY    84  65  52 S13       29.93S
IONIA          FAIR      82  60  47 SW13      29.93R
KALAMAZOO      CLOUDY    80  64  58 VRB6      29.94F
LUDINGTON      CLOUDY    71  65  81 S8        29.90F
MARSHALL       MOSUNNY   80  64  56 S8G17     29.96F
MOUNT PLEASANT PTSUNNY   82  63  52 S10       29.93R
MUSKEGON       CLOUDY    78  67  68 S8        29.91S
SOUTH HAVEN    CLOUDY    79  65  63 S5        29.91F
$$
MIZ016>042-272100-
NORTHERN LOWER MICHIGAN

CITY           SKY/WX    TMP DP  RH WIND       PRES   REMARKS
ALPENA         MOSUNNY   72  58  61 E14       29.96S
BEAVER ISLAND  CLOUDY    72  60  66 NE9       29.93S
BELLAIRE       MOSUNNY   87  55  33 S5        29.88F
CADILLAC       CLOUDY    79  64  60 SE8G16    29.92S
CHARLEVOIX     MOSUNNY   78  61  55 N9        29.92F
FRANKFORT      CLOUDY    64  61  88 CALM      29.91R FOG
GAYLORD        SUNNY     84  53  34 S8        29.93F
GRAYLING       MOSUNNY   84  60  43 S13       29.94F
HARBOR SPRINGS PTSUNNY   84  59  42 SE5       29.90F
HOUGHTON LAKE  MOSUNNY   82  61  48 S10G20    29.94F
MANISTEE       CLOUDY    77  64  65 SW9       29.89S
OSCODA         MOSUNNY   73  59  59 SE8       29.97S
PELLSTON       MOSUNNY   83  61  47 NE13      29.91F
ROGERS CITY    MOSUNNY   75  61  61 E10       29.95F
TRAVERSE CITY  CLOUDY    85  61  44 VRB6      29.86F THUNDER
$$
MIZ007>008-015-272100-
EASTERN UPPER MICHIGAN

CITY           SKY/WX    TMP DP  RH WIND       PRES   REMARKS
KINROSS          N/A     77  61  57 S7        29.95S
MACKINAC ISLAN CLOUDY    63  55  77 E12G18    29.94F
NEWBERRY       MOSUNNY   77  60  55 S6        29.93F
S. S. MARIE    CLOUDY    77  63  61 SE8       29.94S
MUNISING         N/A     56  52  86 CALM      29.91F
$$
MIZ004>006-011>014-085-272100-
CENTRAL UPPER MICHIGAN

CITY           SKY/WX    TMP DP  RH WIND       PRES   REMARKS
MANISTIQUE     CLOUDY    68  63  84 CALM      29.92F
ESCANABA       CLOUDY    63  57  82 SE5       29.92S
MENOMINEE      LGT RAIN  61  61 100 E8        29.89F FOG
SAWYER-GWINN   SUNNY     73  59  60 S12       29.92S
$$
MIZ001>003-009>011-084-272100-
WESTERN UPPER MICHIGAN

CITY           SKY/WX    TMP DP  RH WIND       PRES   REMARKS
IRON MOUNTAIN  CLOUDY    72  60  66 SE13      29.89S
HOUGHTON       CLOUDY    63  56  78 NE7       29.90F
COPPER HARBOR    N/A     48  46  93 E3        29.92F
IRONWOOD       CLOUDY    64  63  94 NE3       29.85F
$$

ABBREVIATIONS USED IN REMARKS
   TC - TEMPERATURE IN CELSIUS
  WCI - WIND CHILL INDEX
   HX - HEAT INDEX
  VSB - VISIBILITY





USA.gov is the U.S. government's official web portal to all federal, state and local government web resources and services.